Back to catalog

STARLINK-4197

AliveCommunicationsVLEO
NORAD 52849·PAYLOAD·🇺🇸 United States

Launched Jun 17, 2022 from Cape Canaveral Space Force Station

Loading…

Next Passes (next 24 hours)

TLE

FreshSource: CelesTrak SupGP

Epoch: Sep 15, 2026, 00:22 UTC

1 52849C 22062V   26258.01576389 -.00007288  00000+0 -20847-3 0  2580
2 52849  53.1574 243.5877 0001387  94.6185 325.5051 15.35408927    19

Track STARLINK-4197 in real time with AllMySat

Download on the App Store